[[{"header":{"parameterUnit":"m.s-1","parameterCategory":1,"la1":30.2991,"la2":30.254,"lo1":-89.0895,"lo2":-89.0444,"dy":0.0017,"dx":0.0017,"nx":28,"ny":28,"refTime":"2024-07-19T21:00:00:Z","depth":0,"parameterNumber":2,"parameterNumberName":"U-component_of_WINDS"},"data":[0,0,0,0,0,0,0,0,0,0,0,0,0,0,0,0,0,0,0,0,0,0,0,0,0,0,0,0,0,0,0,0,0,0,0,0,0,0,0,0,0,0,0,0,0,0,0,0,0,0,0,0,0,0,0,0,0,0,2.5419,2.5419,0,2.5416,2.5416,2.5415,2.5348,2.5346,2.5344,2.5342,2.5338,2.5339,2.5341,0,0,0,0,0,0,0,0,0,0,0,0,0,2.5365,2.5366,2.5419,2.5419,2.5419,2.5416,2.5416,2.5415,2.5348,2.5346,2.5344,2.5342,2.5338,2.5339,2.5341,0,0,0,0,0,0,0,0,0,0,0,0,0,2.5378,2.5367,2.5419,2.5385,2.5382,2.5416,2.5416,2.5415,2.5348,2.5346,2.5343,2.5341,2.5337,2.5339,2.5341,2.5407,0,0,2.5348,2.5349,0,0,0,0,0,0,0,0,2.5377,2.538,2.539,2.5387,2.5384,2.5379,2.5395,2.5413,2.5349,2.5361,2.5342,2.5339,2.5354,2.5355,2.536,2.5407,2.5407,2.5348,2.535,2.5351,2.5351,0,0,0,0,0,0,0,2.5376,2.5379,2.5418,2.539,2.5387,2.5369,2.5368,2.5398,2.5372,2.536,2.5355,2.5355,2.5352,2.5358,2.5359,2.5407,2.5348,2.535,2.5352,2.5353,2.5504,2.5506,0,0,0,0,0,0,2.538,2.5379,2.5418,2.5418,2.5374,2.5372,2.5371,2.5384,2.5372,2.5367,2.5358,2.5352,2.5355,2.5356,2.5359,2.5431,2.5351,2.5353,2.5354,2.5501,2.5504,2.5507,0,0,0,0,0,0,2.5379,2.5384,2.5418,2.5397,2.54,2.5376,2.5391,2.5385,2.5391,2.537,2.5365,2.5369,2.5353,2.5355,2.5395,2.543,2.5354,2.5356,2.5498,2.5502,2.5506,2.558,0,0,0,0,0,0,2.5378,2.5384,2.541,2.5398,2.5401,2.5455,2.5393,2.5387,2.5395,2.5388,2.5379,2.5375,2.5351,2.5392,2.5397,2.5432,2.5358,2.5495,2.55,2.5504,2.5575,2.5586,2.5597,0,0,0,0,0,2.5376,2.5432,2.5412,2.5417,2.5433,2.5458,2.5459,2.5431,2.5398,2.5423,2.5409,2.5375,2.5426,2.5396,2.5402,2.5438,2.5492,2.5498,2.5504,2.557,2.5584,2.5596,0,0,0,0,0,0,2.545,2.543,2.5407,2.5461,2.5462,2.5446,2.5477,2.5448,2.5458,2.5451,2.5415,2.5414,2.5458,2.5452,2.5419,2.5499,2.5453,2.546,2.5501,2.5515,2.5525,2.5525,2.5359,0,0,0,0,0,2.5472,2.5494,2.5476,2.5525,2.5526,2.5502,2.5511,2.5489,2.5488,2.5488,2.5477,2.5477,2.5492,2.5504,2.5517,2.5574,2.5569,2.5601,2.5612,2.5622,2.5628,2.5653,2.5666,2.5527,2.5527,2.5527,0,0,2.5519,2.5511,2.5527,2.5539,2.5537,2.5559,2.5502,2.5529,2.5545,2.5492,2.5527,2.552,2.5517,2.5564,2.5585,2.5561,2.5665,2.5629,2.5637,2.5638,2.5661,2.5674,2.5686,2.5531,2.553,2.553,0,0,2.5614,2.5612,2.565,2.5649,2.5646,2.5628,2.5638,2.5626,2.5618,2.5654,2.5613,2.5631,2.566,2.5658,2.5661,2.5753,2.5721,2.5759,2.5815,2.5841,2.5852,2.5861,2.589,2.5902,2.5765,2.5765,2.5766,0,2.5672,2.5705,2.5674,2.5702,2.5707,2.566,2.5698,2.5698,2.5699,2.5703,2.5677,2.5709,2.5705,2.5749,2.5771,2.5776,2.5783,2.5759,2.5853,2.5862,2.587,2.5898,2.5909,2.577,2.5769,2.5769,2.5768,0,2.5774,2.5797,2.5829,2.583,2.5839,2.5872,2.5845,2.5857,2.5834,2.5819,2.5854,2.5846,2.5855,2.5865,2.5843,2.5905,2.589,2.5859,2.5811,2.5888,2.5913,2.5924,2.5776,2.5774,2.5773,2.5772,0,0,2.5916,2.5898,2.591,2.5908,2.59,2.5916,2.5946,2.5955,2.5965,2.5967,2.5989,2.6013,2.5983,2.5987,2.5964,2.5987,2.6056,2.5953,2.5952,2.5969,2.6119,2.6141,2.6153,2.6035,2.6037,2.6039,2.6118,0,2.6005,2.6055,2.6027,2.608,2.6098,2.6053,2.6078,2.6075,2.6061,2.6074,2.606,2.6076,2.6037,2.6038,2.6059,2.6043,2.6085,2.6037,2.6053,2.6054,2.6052,2.6167,2.619,2.6266,2.6128,2.613,2.6131,0,2.6116,2.6121,2.6176,2.616,2.6167,2.6191,2.6194,2.6208,2.6203,2.6191,2.6194,2.6165,2.6191,2.6146,2.6179,2.6148,2.6153,2.6146,2.6148,2.6146,2.6096,2.6165,2.629,2.63,2.6147,2.6146,2.6145,0,2.621,2.6231,2.6264,2.6265,2.6249,2.6266,2.626,2.6252,2.6258,2.6261,2.6264,2.6271,2.6274,2.6279,2.6252,2.6222,2.6288,2.6242,2.6277,2.6278,2.6291,2.629,2.6415,2.63,2.63,2.63,2.6299,0,2.631,2.6345,2.6306,2.6326,2.6362,2.6329,2.6366,2.6355,2.6348,2.6364,2.6326,2.6343,2.6307,2.6319,2.6299,2.6328,2.633,2.632,2.6313,2.6322,2.6323,2.6322,2.6315,2.6302,2.6302,2.6301,2.6301,0,2.642,2.6396,2.6429,2.6411,2.6407,2.6434,2.6417,2.6434,2.6418,2.6439,2.6442,2.6416,2.6428,2.6402,2.6411,2.6397,2.6437,2.6424,2.6439,2.6433,2.6469,2.6465,2.6596,2.6609,2.6489,2.649,2.6491,0,2.6485,2.6509,2.6493,2.65,2.6496,2.651,2.6515,2.6483,2.649,2.6484,2.6501,2.651,2.6515,2.6536,2.6517,2.6523,2.6508,2.6553,2.6509,2.6515,2.6504,2.6502,2.6503,2.6562,2.6563,2.6565,2.6566,0,2.66,2.6586,2.6595,2.6599,2.6605,2.6607,2.6606,2.6615,2.658,2.6589,2.66,2.6604,2.6612,2.662,2.6621,2.6614,2.6583,2.658,2.6588,2.6595,2.6601,2.6595,2.646,2.6577,2.6576,2.6575,2.6574,2.6574,2.6687,2.6705,2.6695,2.6705,2.67,2.67,2.6714,2.6698,2.6707,2.671,2.6691,2.6706,2.6697,2.6695,2.6691,2.6701,2.668,2.6692,2.6695,2.6698,2.6702,2.6602,2.6701,2.6701,2.6701,2.67,2.67,0,2.6797,2.6788,2.6798,2.6796,2.6803,2.6774,2.677,2.6778,2.6791,2.6786,2.6791,2.6802,2.6809,2.679,2.6794,2.6806,2.6791,2.6807,2.6805,2.6803,2.6722,2.6713,2.6819,2.6819,2.6819,2.6819,2.6818,2.6818,2.6856,2.6884,2.6868,2.6893,2.6883,2.6897,2.6896,2.6895,2.6889,2.6903,2.6909,2.6896,2.6884,2.6887,2.6891,2.6885,2.6887,2.6907,2.6896,2.6821,2.6809,2.6798,2.6789,2.6909,2.6909,2.6976,2.6976,2.6977]},{"header":{"parameterUnit":"m.s-1","parameterCategory":1,"la1":30.2991,"la2":30.254,"lo1":-89.0895,"lo2":-89.0444,"dy":0.0017,"dx":0.0017,"nx":28,"ny":28,"refTime":"2024-07-19T21:00:00:Z","depth":0,"parameterNumber":3,"parameterNumberName":"V-component_of_WINDS"},"data":[0,0,0,0,0,0,0,0,0,0,0,0,0,0,0,0,0,0,0,0,0,0,0,0,0,0,0,0,0,0,0,0,0,0,0,0,0,0,0,0,0,0,0,0,0,0,0,0,0,0,0,0,0,0,0,0,0,0,3.144,3.144,0,3.1496,3.1497,3.1498,3.1481,3.148,3.1479,3.1478,3.1534,3.1536,3.1539,0,0,0,0,0,0,0,0,0,0,0,0,0,3.1312,3.1315,3.144,3.144,3.1441,3.1496,3.1497,3.1498,3.1481,3.148,3.1479,3.1477,3.1533,3.1536,3.1539,0,0,0,0,0,0,0,0,0,0,0,0,0,3.1368,3.1315,3.1439,3.1439,3.144,3.1496,3.1497,3.1498,3.1482,3.148,3.1478,3.1477,3.1532,3.1535,3.1539,3.1598,0,0,3.1551,3.1553,0,0,0,0,0,0,0,0,3.1365,3.1373,3.1439,3.144,3.144,3.148,3.1473,3.1531,3.1482,3.1466,3.1478,3.1476,3.1517,3.1522,3.1536,3.1601,3.1603,3.1551,3.1554,3.1555,3.1556,0,0,0,0,0,0,0,3.1361,3.137,3.1462,3.144,3.1441,3.1435,3.1441,3.1484,3.15,3.1467,3.1466,3.1473,3.1517,3.1533,3.1537,3.1604,3.1551,3.1555,3.1557,3.1559,3.1715,3.1717,0,0,0,0,0,0,3.1357,3.1367,3.146,3.1464,3.1398,3.1439,3.1446,3.1469,3.15,3.1503,3.1475,3.1472,3.1527,3.1533,3.1539,3.1607,3.1555,3.1559,3.1561,3.1713,3.1715,3.1717,0,0,0,0,0,0,3.1354,3.1366,3.1458,3.1415,3.1426,3.1443,3.1469,3.1471,3.1487,3.1506,3.1508,3.1488,3.1526,3.1534,3.1583,3.1609,3.1561,3.1564,3.1711,3.1714,3.1716,3.1746,0,0,0,0,0,0,3.1351,3.1365,3.1389,3.1416,3.1429,3.1502,3.1471,3.1473,3.1494,3.1491,3.1519,3.1521,3.1525,3.1577,3.1587,3.1614,3.1567,3.1708,3.1712,3.1715,3.1742,3.1749,3.1755,0,0,0,0,0,3.1346,3.1395,3.139,3.1401,3.1459,3.1503,3.1511,3.1515,3.1496,3.1519,3.153,3.1521,3.1605,3.1582,3.1593,3.1621,3.1707,3.1711,3.1715,3.174,3.1748,3.1755,0,0,0,0,0,0,3.1371,3.1399,3.1393,3.1453,3.1476,3.1501,3.153,3.1524,3.1552,3.1548,3.1551,3.1557,3.1607,3.1619,3.1593,3.1678,3.1653,3.1659,3.1668,3.1676,3.1682,3.1677,3.157,0,0,0,0,0,3.1383,3.1418,3.144,3.149,3.1502,3.1514,3.1533,3.1534,3.1558,3.1567,3.1583,3.1605,3.1636,3.1657,3.1687,3.1744,3.1748,3.1769,3.1775,3.178,3.1785,3.1813,3.1821,3.1731,3.1731,3.1731,0,0,3.1408,3.1428,3.145,3.1495,3.1513,3.1547,3.1522,3.156,3.1585,3.1573,3.1619,3.1631,3.1656,3.1709,3.1732,3.172,3.1811,3.1785,3.1789,3.1791,3.1818,3.1826,3.1834,3.1734,3.1733,3.1733,0,0,3.1472,3.1491,3.1533,3.1551,3.1579,3.1586,3.1596,3.1622,3.1629,3.1676,3.1666,3.1695,3.175,3.1767,3.1783,3.185,3.184,3.1859,3.1891,3.1918,3.1925,3.1931,3.1952,3.196,3.1865,3.1865,3.1865,0,3.15,3.1552,3.1556,3.1593,3.1612,3.1603,3.1644,3.1661,3.1697,3.1709,3.1695,3.1761,3.1778,3.1832,3.1848,3.1863,3.1872,3.1856,3.1924,3.193,3.1936,3.1956,3.1964,3.1867,3.1866,3.1866,3.1866,0,3.1583,3.1619,3.165,3.1684,3.1706,3.1745,3.1753,3.1775,3.1773,3.1781,3.1827,3.1846,3.1878,3.1891,3.1891,3.1945,3.1936,3.1924,3.1898,3.1947,3.1965,3.1973,3.1869,3.1869,3.1868,3.1868,0,0,3.1664,3.1698,3.1709,3.1723,3.1751,3.1778,3.1816,3.1847,3.1864,3.1889,3.1918,3.1964,3.1951,3.1969,3.197,3.1994,3.2041,3.1977,3.1978,3.1986,3.2099,3.2106,3.2115,3.2036,3.2037,3.2038,3.2095,0,3.1728,3.1795,3.1798,3.1858,3.1889,3.1879,3.1911,3.1931,3.1939,3.1966,3.1974,3.2005,3.1988,3.1998,3.2021,3.203,3.2063,3.2027,3.2061,3.2062,3.2053,3.2126,3.2135,3.2188,3.2103,3.2104,3.2105,0,3.1812,3.1838,3.19,3.1921,3.1934,3.1963,3.1991,3.2017,3.2038,3.2042,3.2061,3.2057,3.2093,3.2067,3.2115,3.209,3.2104,3.2111,3.2113,3.2115,3.2086,3.2127,3.2205,3.2212,3.2117,3.2116,3.2116,0,3.1861,3.1912,3.1955,3.1967,3.1993,3.2013,3.2025,3.2044,3.2062,3.2086,3.2096,3.2124,3.2139,3.2159,3.2162,3.2144,3.2209,3.2185,3.2211,3.2211,3.2224,3.2223,3.2304,3.2237,3.2237,3.2237,3.2237,0,3.193,3.1969,3.1977,3.2003,3.2044,3.2047,3.2087,3.2097,3.2114,3.214,3.2134,3.2159,3.2162,3.2187,3.219,3.2227,3.2235,3.2237,3.2237,3.2237,3.2236,3.2245,3.224,3.2239,3.2239,3.2238,3.2238,0,3.1992,3.2,3.2045,3.2066,3.2071,3.2101,3.2117,3.2141,3.2148,3.2181,3.2189,3.2199,3.2228,3.2233,3.2268,3.2269,3.2313,3.231,3.2306,3.2305,3.233,3.2327,3.2417,3.2428,3.2357,3.2357,3.2358,0,3.2035,3.2064,3.2086,3.2104,3.2116,3.2145,3.2162,3.2165,3.2183,3.2207,3.2228,3.2256,3.2278,3.2325,3.2334,3.236,3.2356,3.2386,3.236,3.2357,3.2353,3.235,3.2352,3.239,3.2391,3.2392,3.2392,0,3.211,3.2111,3.2137,3.2163,3.2184,3.2205,3.2225,3.2239,3.2244,3.2264,3.2294,3.2311,3.2345,3.2372,3.2397,3.2407,3.24,3.24,3.2407,3.2406,3.2402,3.2402,3.2317,3.2398,3.2397,3.2397,3.2397,3.2396,3.2161,3.2185,3.2204,3.2232,3.2247,3.2265,3.2287,3.2296,3.2321,3.2349,3.2349,3.238,3.2397,3.2429,3.2441,3.2464,3.2455,3.2466,3.2468,3.247,3.2471,3.2399,3.2469,3.2469,3.2469,3.2469,3.2469,0,3.2233,3.2244,3.227,3.2297,3.2318,3.231,3.233,3.2348,3.2376,3.2393,3.2415,3.2447,3.2473,3.2484,3.2508,3.2524,3.2521,3.2531,3.2528,3.253,3.248,3.247,3.2532,3.2532,3.2532,3.2532,3.2532,3.2532,3.2273,3.2311,3.2315,3.236,3.237,3.2401,3.2413,3.2428,3.2442,3.2478,3.2499,3.2506,3.2519,3.2545,3.2567,3.2569,3.2577,3.2588,3.2588,3.2541,3.2534,3.2528,3.2519,3.259,3.259,3.2636,3.2637,3.2637]}]]